Home   Weather   Langfang   Past weeks

Flag for China Past Weather in Langfang, Hebei, China — Yesterday and Last 2 Weeks

Now
28 °F

Clear.


Feels Like: 25 °F
Forecast: 21 / 49 °F
Wind: 3 mph from East

Location: Beijing Airport

Current Time: Feb 21, 2017 at 8:51:36 am

Latest Report: Feb 21, 2017 at 8:30 am


Visibility: 4 mi

Pressure: 30.51 "Hg

Humidity: 43%

Dew Point: 9 °F

Location of LangfangLocation

Past Weather in Langfang — Graph

°F

Langfang Temperature Yesterday

Maximum temperature yesterday: 41 °F (at 2:30 pm)
Minimum temperature yesterday: 21 °F (at 10:30 pm)
Average temperature yesterday: 32 °F

High & Low Weather Summary for the Past Weeks

 TemperatureHumidityPressure
High59 °F (Feb 19, 2:00 pm)93% (Feb 14, 7:00 am)30.60 "Hg (Feb 14, 7:00 am)
Low18 °F (Feb 12, 4:30 am)8% (Feb 17, 1:00 pm)29.71 "Hg (Feb 19, 5:30 am)
Average34 °F37%30.33 "Hg
* Reported Feb 6 7:00 am — Feb 21 7:30 am, Langfang, Weather by CustomWeather, © 2017

Note: Actual official high and low records may vary slightly from our data, if they occured in-between our weather recording intervals... More about our weather records

Advertising

Langfang Weather History for the Previous 24 Hours

Scroll right to see more
 ConditionsComfort  
Time TempWeatherWind HumidityBarometerVisibility
7:30 am
Tue, Feb 21
27 °FClear.3 mph43%30.51 "Hg5 mi
7:00 am27 °FClear.1 mph43%30.51 "Hg5 mi
6:30 am25 °FClear.1 mph50%30.51 "Hg5 mi
6:00 am27 °FClear.3 mph43%30.51 "Hg5 mi
5:30 am23 °FClear.1 mph46%30.51 "Hg5 mi
5:00 am23 °FClear.1 mph46%30.54 "Hg5 mi
4:30 am23 °FClear.3 mph50%30.54 "Hg5 mi
4:00 am25 °FClear.1 mph46%30.54 "Hg5 mi
3:30 am25 °FClear.1 mph46%30.54 "Hg5 mi
3:00 am25 °FClear.3 mph46%30.51 "Hg5 mi
2:30 am23 °FClear.3 mph50%30.51 "Hg5 mi
2:00 am23 °FClear.1 mph50%30.51 "Hg5 mi
1:30 am21 °FClear.3 mph54%30.54 "Hg5 mi
1:00 am21 °FClear.1 mph54%30.54 "Hg5 mi
12:30 am21 °FClear.1 mph49%30.54 "Hg5 mi
12:00 am23 °FClear.1 mph46%30.54 "Hg5 mi
11:30 pm
Mon, Feb 20
27 °FClear.1 mph39%30.54 "Hg5 mi
11:00 pm27 °FClear.1 mph39%30.54 "Hg5 mi
10:30 pm21 °FClear.1 mph49%30.54 "Hg6 mi
10:00 pm27 °FClear.1 mph39%30.54 "Hg10 mi
9:30 pm28 °FClear.1 mph37%30.54 "Hg10 mi
9:00 pm27 °FClear.3 mph36%30.54 "Hg10 mi
8:30 pm30 °FPassing clouds.3 mph31%30.54 "HgN/A
8:00 pm32 °FClear.1 mph27%30.51 "Hg10 mi
7:30 pm37 °FPassing clouds.3 mph15%30.51 "HgN/A
7:00 pm37 °FPassing clouds.6 mph14%30.51 "HgN/A
6:30 pm39 °FPassing clouds.6 mph14%30.48 "HgN/A
6:00 pm39 °FPassing clouds.3 mph14%30.48 "HgN/A
5:30 pm39 °FPassing clouds.3 mph13%30.45 "HgN/A
5:00 pm39 °FPassing clouds.6 mph14%30.48 "HgN/A
4:30 pm39 °FPassing clouds.6 mph13%30.48 "HgN/A
4:00 pm39 °FSunny.1 mph13%30.48 "Hg10 mi
3:30 pm39 °FSunny.1 mph13%30.48 "Hg10 mi
3:00 pm39 °FPassing clouds.3 mph13%30.45 "HgN/A
2:30 pm41 °FPassing clouds.3 mph13%30.48 "HgN/A
2:00 pm39 °FPassing clouds.6 mph13%30.48 "HgN/A
1:30 pm39 °FPassing clouds.10 mph14%30.48 "HgN/A
1:00 pm37 °FPassing clouds.8 mph14%30.51 "HgN/A
12:30 pm37 °FPassing clouds.10 mph15%30.51 "HgN/A
12:00 pm34 °FPassing clouds.8 mph16%30.54 "HgN/A
11:30 am37 °FSunny.13 mph14%30.54 "Hg10 mi
11:00 am36 °FPassing clouds.15 mph16%30.54 "HgN/A
10:30 am32 °FPassing clouds.13 mph19%30.54 "HgN/A
10:00 am32 °FPassing clouds.6 mph23%30.54 "HgN/A
9:30 am30 °FSunny.10 mph24%30.54 "Hg10 mi
9:00 am28 °FSunny.6 mph29%30.51 "Hg10 mi
8:30 am28 °FSunny.8 mph26%30.51 "Hg10 mi
8:00 am27 °FSunny.6 mph31%30.48 "Hg10 mi
Weather by CustomWeather, © 2017

See weather overviewHow to use our weather pages